{"data":{"norad_id":57332,"intl_designator":"2023-099E","name":"STARLINK-5831","alt_names":[],"object_type":"PAYLOAD","status":"ACTIVE","operator":null,"country":"US","launch_date":"2023-07-16","launch_site_code":"AFETR","launch_vehicle":null,"mission":null,"orbit_class":"UNKNOWN","rcs_meters":null,"size_class":null,"mass_kg":null,"dimensions":null,"purposes":["comms"],"wikipedia_slug":null,"has_3d_model":false,"image_url":null,"decayed_at":null,"tle_current":{"epoch":"2026-05-24T12:19:28.972992Z","epoch_age_seconds":127617,"freshness":"FRESH","line1":"1 57332U 23099E   26144.51352978  .00000655  00000+0  33313-4 0  9992","line2":"2 57332  43.0023 184.1077 0001490 272.1581  87.9100 15.27577090157676","mean_motion":15.2757709,"eccentricity":0.000149,"inclination_deg":43.0023,"raan_deg":184.1077,"arg_perigee_deg":272.1581,"mean_anomaly_deg":87.91,"bstar":3.3313e-5,"rev_number":15767,"period_min":94.266928289688,"perigee_km":482.03549161372,"apogee_km":484.08012766699,"semimajor_km":6861.1948096404,"source":"CELESTRAK","updated_at":"2026-05-25T13:38:18.286067Z"}}}